Flag for U.S.A. Weather past 2 weeks in Topeka, Kansas, U.S.A.

Now
67 °F

Passing clouds.


Feels Like: 67 °F
Forecast: 64 / 76 °F
Wind: 8 mph from South

Location: Philip Billard Municipal Airport

Current Time: May 29, 2015 at 6:38:27 AM

Latest Report: May 29, 2015 at 5:53 AM


Visibility: 10 mi

Pressure: 29.89 "Hg

Humidity: 87%

Dew point: 63 °F

Location of TopekaLocation

Historic Weather in Topeka — Graph

°F

Topeka temperature yesterday

Maximum temperature yesterday: 76 °F (at 6:53 PM)
Minimum temperature yesterday: 64 °F (at 6:53 AM)
Average temperature yesterday: 69 °F

Past Weeks' High & Low Weather Summary

 TemperatureHumidityPressure
High82 °F (May 17, 5:53 PM)100% (May 14, 11:53 PM)30.34 "Hg (May 14, 11:53 PM)
Low43 °F (May 21, 5:53 AM)37% (May 27, 3:53 PM)29.64 "Hg (May 17, 12:53 AM)
Average64 °F78%30.01 "Hg
* Reported May 14 4:53 AM — May 29 4:53 AM, Topeka, Weather by CustomWeather, © 2015

Note: Actual official high and low records may vary slightly from our data, if they occured in-between our weather recording intervals... More about our weather records

Advertising

Topeka weather history for previous 24 hours

 ConditionsComfort  
Time TempWeatherWind HumidityBarometerVisibility
4:53 AM
Fri, May 29
67 °FLight rain. Low clouds.8 mph93%29.90 "Hg10 mi
3:53 AM66 °FLow clouds.7 mph96%29.89 "Hg10 mi
2:53 AM66 °FLow clouds.5 mph96%29.91 "Hg10 mi
1:53 AM66 °FLow clouds.7 mph93%29.93 "Hg10 mi
12:53 AM66 °FClear.8 mph93%29.94 "Hg10 mi
11:53 PM
Thu, May 28
66 °FPassing clouds.8 mph93%29.96 "Hg10 mi
10:53 PM67 °FClear.7 mph90%29.97 "Hg10 mi
9:53 PM68 °FClear.7 mph87%29.95 "Hg10 mi
8:53 PM69 °FSunny.8 mph84%29.94 "Hg10 mi
7:53 PM73 °FSunny.6 mph74%29.94 "Hg10 mi
6:53 PM76 °FSunny.9 mph67%29.91 "Hg10 mi
5:53 PM75 °FSunny.12 mph69%29.92 "Hg10 mi
4:53 PM73 °FSunny.9 mph71%29.96 "Hg10 mi
3:53 PM73 °FScattered clouds.9 mph71%29.99 "Hg10 mi
2:53 PM72 °FBroken clouds.13 mph78%30.02 "Hg10 mi
1:53 PM71 °FMostly cloudy.9 mph87%30.05 "Hg10 mi
12:53 PM70 °FScattered clouds.12 mph84%30.05 "Hg10 mi
11:53 AM68 °FMostly cloudy.14 mph87%30.06 "Hg10 mi
10:53 AM69 °FPartly sunny.10 mph87%30.03 "Hg10 mi
9:53 AM68 °FLow clouds.9 mph90%30.03 "Hg10 mi
8:53 AM67 °FScattered clouds.3 mph93%30.03 "Hg10 mi
7:53 AM65 °FPartly sunny.3 mph97%30.04 "Hg10 mi
6:53 AM64 °FRain. Fog.No wind97%30.08 "Hg3 mi
Weather by CustomWeather, © 2015

See weather overviewHow to use our weather pages